Stündliche Wetter Warsaw

Heute, 22 Oktober, Donnerstag

Zeit Temperatur Niederschläge Wind Luftdruck Luftfeuchtigkeit
00:00 +11°C° 0 mm 4 m/S 751 mmHg 75%
01:00 +10°C° 0 mm 4 m/S 751 mmHg 75%
02:00 +10°C° 0 mm 4 m/S 750 mmHg 76%
03:00 +10°C° 0 mm 4 m/S 750 mmHg 76%
04:00 +10°C° 0 mm 4 m/S 750 mmHg 76%
05:00 +11°C° 0 mm 4 m/S 750 mmHg 74%
06:00 +10°C° 0 mm 5 m/S 751 mmHg 73%
07:00 +12°C° 0 mm 5 m/S 751 mmHg 71%
08:00 +13°C° 0 mm 5 m/S 751 mmHg 65%
09:00 +15°C° 0 mm 6 m/S 752 mmHg 60%
10:00 +17°C° 0 mm 6 m/S 752 mmHg 54%
11:00 +19°C° 0 mm 6 m/S 752 mmHg 54%
12:00 +19°C° 0 mm 6 m/S 752 mmHg 55%
13:00 +20°C° 0 mm 6 m/S 752 mmHg 55%
14:00 +19°C° 0 mm 5 m/S 752 mmHg 60%
15:00 +18°C° 0 mm 4 m/S 752 mmHg 64%
16:00 +17°C° 0 mm 3 m/S 752 mmHg 69%
17:00 +16°C° 0 mm 3 m/S 752 mmHg 71%
18:00 +16°C° 0 mm 3 m/S 752 mmHg 74%
19:00 +14°C° 0 mm 3 m/S 752 mmHg 76%
20:00 +14°C° 0 mm 3 m/S 752 mmHg 77%
21:00 +13°C° 0 mm 3 m/S 752 mmHg 78%
22:00 +13°C° 0 mm 3 m/S 752 mmHg 78%
23:00 +13°C° 0 mm 3 m/S 752 mmHg 79%

Morgen, 23 Oktober, Freitag

Zeit Temperatur Niederschläge Wind Luftdruck Luftfeuchtigkeit
00:00 +13°C° 0 mm 3 m/S 752 mmHg 80%
01:00 +12°C° 0 mm 3 m/S 752 mmHg 81%
02:00 +12°C° 0 mm 3 m/S 752 mmHg 80%
03:00 +12°C° 0 mm 3 m/S 752 mmHg 80%
04:00 +12°C° 0 mm 3 m/S 751 mmHg 80%
05:00 +12°C° 0 mm 3 m/S 751 mmHg 80%
06:00 +12°C° 0 mm 4 m/S 751 mmHg 80%
07:00 +13°C° 0 mm 4 m/S 751 mmHg 79%
08:00 +14°C° 0 mm 4 m/S 751 mmHg 76%
09:00 +15°C° 0 mm 4 m/S 751 mmHg 73%
10:00 +16°C° 0 mm 5 m/S 751 mmHg 70%
11:00 +17°C° 0 mm 4 m/S 750 mmHg 69%
12:00 +18°C° 0 mm 4 m/S 750 mmHg 68%
13:00 +18°C° 0 mm 4 m/S 750 mmHg 67%
14:00 +18°C° 0 mm 3 m/S 750 mmHg 70%
15:00 +17°C° 0 mm 2 m/S 750 mmHg 74%
16:00 +16°C° 0 mm 2 m/S 750 mmHg 77%
17:00 +16°C° 0 mm 1 m/S 750 mmHg 78%
18:00 +16°C° 0 mm 1 m/S 750 mmHg 79%
19:00 +15°C° 0 mm 1 m/S 750 mmHg 80%
20:00 +15°C° 0.2 mm 1 m/S 750 mmHg 83%
21:00 +15°C° 0.2 mm 1 m/S 750 mmHg 86%
22:00 +15°C° 0.2 mm 1 m/S 750 mmHg 89%
23:00 +14°C° 0.7 mm 1 m/S 750 mmHg 90%

übermorgen, 24 Oktober, Samstag

Zeit Temperatur Niederschläge Wind Luftdruck Luftfeuchtigkeit
00:00 +14°C° 0.7 mm 1 m/S 750 mmHg 91%
01:00 +14°C° 0.7 mm 1 m/S 750 mmHg 92%
02:00 +14°C° 0.7 mm 2 m/S 749 mmHg 92%
03:00 +14°C° 0.7 mm 2 m/S 749 mmHg 92%
04:00 +14°C° 0.7 mm 2 m/S 749 mmHg 91%
05:00 +13°C° 1.4 mm 3 m/S 749 mmHg 92%
06:00 +13°C° 1.4 mm 3 m/S 749 mmHg 93%
07:00 +12°C° 1.4 mm 3 m/S 749 mmHg 94%
08:00 +13°C° 1.7 mm 3 m/S 749 mmHg 94%
09:00 +13°C° 1.7 mm 3 m/S 749 mmHg 94%
10:00 +14°C° 1.7 mm 2 m/S 749 mmHg 94%
11:00 +14°C° 0 mm 2 m/S 750 mmHg 91%
12:00 +14°C° 0 mm 2 m/S 750 mmHg 87%
13:00 +15°C° 0 mm 2 m/S 750 mmHg 84%
14:00 +15°C° 0 mm 2 m/S 751 mmHg 83%
15:00 +15°C° 0 mm 2 m/S 751 mmHg 82%
16:00 +14°C° 0 mm 3 m/S 751 mmHg 82%
17:00 +13°C° 0 mm 3 m/S 752 mmHg 84%
18:00 +12°C° 0 mm 3 m/S 752 mmHg 86%
19:00 +12°C° 0 mm 3 m/S 753 mmHg 88%
20:00 +11°C° 0 mm 3 m/S 753 mmHg 89%
21:00 +10°C° 0 mm 3 m/S 754 mmHg 90%
22:00 +10°C° 0 mm 2 m/S 754 mmHg 91%
23:00 +10°C° 0 mm 2 m/S 754 mmHg 91%

, 25 Oktober, Sonntag

Zeit Temperatur Niederschläge Wind Luftdruck Luftfeuchtigkeit
00:00 +9°C° 0 mm 2 m/S 754 mmHg 90%
01:00 +9°C° 0 mm 2 m/S 754 mmHg 90%
02:00 +9°C° 0 mm 2 m/S 754 mmHg 90%
03:00 +9°C° 0 mm 2 m/S 754 mmHg 90%
04:00 +9°C° 0 mm 2 m/S 754 mmHg 91%
05:00 +9°C° 0 mm 2 m/S 754 mmHg 89%
06:00 +9°C° 0 mm 2 m/S 755 mmHg 88%
07:00 +10°C° 0 mm 3 m/S 755 mmHg 87%
08:00 +11°C° 0 mm 3 m/S 755 mmHg 83%
09:00 +12°C° 0 mm 3 m/S 755 mmHg 80%
10:00 +13°C° 0 mm 3 m/S 755 mmHg 76%
11:00 +14°C° 0 mm 3 m/S 755 mmHg 73%
12:00 +14°C° 0 mm 3 m/S 754 mmHg 71%
13:00 +16°C° 0 mm 3 m/S 754 mmHg 68%
14:00 +14°C° 0 mm 3 m/S 754 mmHg 71%
15:00 +14°C° 0 mm 3 m/S 754 mmHg 74%
16:00 +14°C° 0 mm 2 m/S 754 mmHg 76%
17:00 +12°C° 0 mm 3 m/S 754 mmHg 78%
18:00 +12°C° 0 mm 3 m/S 754 mmHg 79%
19:00 +11°C° 0 mm 3 m/S 754 mmHg 80%
20:00 +11°C° 0 mm 3 m/S 754 mmHg 82%
21:00 +10°C° 0 mm 3 m/S 754 mmHg 83%
22:00 +10°C° 0 mm 3 m/S 754 mmHg 85%
23:00 +10°C° 0 mm 3 m/S 753 mmHg 86%

25 Oktober, Sonntag

Zeit Temperatur Niederschläge Wind Luftdruck Luftfeuchtigkeit
00:00 +9°C° 0 mm 2 m/S 754 mmHg 90%
01:00 +9°C° 0 mm 2 m/S 754 mmHg 90%
02:00 +9°C° 0 mm 2 m/S 754 mmHg 90%
03:00 +9°C° 0 mm 2 m/S 754 mmHg 90%
04:00 +9°C° 0 mm 2 m/S 754 mmHg 91%
05:00 +9°C° 0 mm 2 m/S 754 mmHg 89%
06:00 +9°C° 0 mm 2 m/S 755 mmHg 88%
07:00 +10°C° 0 mm 3 m/S 755 mmHg 87%
08:00 +11°C° 0 mm 3 m/S 755 mmHg 83%
09:00 +12°C° 0 mm 3 m/S 755 mmHg 80%
10:00 +13°C° 0 mm 3 m/S 755 mmHg 76%
11:00 +14°C° 0 mm 3 m/S 755 mmHg 73%
12:00 +14°C° 0 mm 3 m/S 754 mmHg 71%
13:00 +16°C° 0 mm 3 m/S 754 mmHg 68%
14:00 +14°C° 0 mm 3 m/S 754 mmHg 71%
15:00 +14°C° 0 mm 3 m/S 754 mmHg 74%
16:00 +14°C° 0 mm 2 m/S 754 mmHg 76%
17:00 +12°C° 0 mm 3 m/S 754 mmHg 78%
18:00 +12°C° 0 mm 3 m/S 754 mmHg 79%
19:00 +11°C° 0 mm 3 m/S 754 mmHg 80%
20:00 +11°C° 0 mm 3 m/S 754 mmHg 82%
21:00 +10°C° 0 mm 3 m/S 754 mmHg 83%
22:00 +10°C° 0 mm 3 m/S 754 mmHg 85%
23:00 +10°C° 0 mm 3 m/S 753 mmHg 86%

26 Oktober, Montag

Zeit Temperatur Niederschläge Wind Luftdruck Luftfeuchtigkeit
00:00 +9°C° 0 mm 3 m/S 753 mmHg 87%
01:00 +9°C° 0 mm 3 m/S 753 mmHg 88%
02:00 +9°C° 0 mm 3 m/S 753 mmHg 89%
03:00 +9°C° 0 mm 3 m/S 752 mmHg 90%
04:00 +8°C° 0 mm 4 m/S 752 mmHg 91%
05:00 +8°C° 0 mm 4 m/S 752 mmHg 91%
06:00 +8°C° 0 mm 4 m/S 752 mmHg 92%
07:00 +8°C° 0 mm 5 m/S 751 mmHg 92%
08:00 +9°C° 0 mm 5 m/S 751 mmHg 87%
09:00 +10°C° 0 mm 5 m/S 751 mmHg 82%
10:00 +12°C° 0 mm 5 m/S 750 mmHg 77%
11:00 +13°C° 0 mm 6 m/S 750 mmHg 74%
12:00 +14°C° 0 mm 6 m/S 750 mmHg 71%
13:00 +14°C° 0 mm 6 m/S 749 mmHg 68%
14:00 +14°C° 0 mm 6 m/S 749 mmHg 72%
15:00 +13°C° 0 mm 5 m/S 749 mmHg 76%
16:00 +13°C° 0 mm 5 m/S 748 mmHg 80%
17:00 +12°C° 0 mm 5 m/S 748 mmHg 81%
18:00 +12°C° 0 mm 5 m/S 748 mmHg 82%
19:00 +12°C° 0 mm 5 m/S 748 mmHg 83%
20:00 +12°C° 0 mm 5 m/S 748 mmHg 84%
21:00 +12°C° 0 mm 5 m/S 748 mmHg 85%
22:00 +10°C° 0 mm 5 m/S 748 mmHg 87%
23:00 +11°C° 0 mm 4 m/S 748 mmHg 88%

27 Oktober, Dienstag

Zeit Temperatur Niederschläge Wind Luftdruck Luftfeuchtigkeit
00:00 +11°C° 0 mm 4 m/S 748 mmHg 89%
01:00 +11°C° 0 mm 4 m/S 748 mmHg 90%
02:00 +10°C° 0 mm 4 m/S 748 mmHg 91%
03:00 +10°C° 0 mm 4 m/S 748 mmHg 91%
04:00 +10°C° 0 mm 4 m/S 748 mmHg 92%
05:00 +10°C° 0 mm 4 m/S 748 mmHg 91%
06:00 +10°C° 0 mm 4 m/S 748 mmHg 90%
07:00 +10°C° 0 mm 4 m/S 749 mmHg 89%
08:00 +12°C° 0 mm 4 m/S 749 mmHg 83%
09:00 +13°C° 0 mm 4 m/S 749 mmHg 78%
10:00 +15°C° 0 mm 4 m/S 749 mmHg 73%
11:00 +15°C° 0 mm 4 m/S 749 mmHg 70%
12:00 +17°C° 0 mm 4 m/S 749 mmHg 68%
13:00 +18°C° 0 mm 4 m/S 750 mmHg 65%
14:00 +17°C° 0 mm 3 m/S 750 mmHg 70%
15:00 +16°C° 0 mm 3 m/S 750 mmHg 74%
16:00 +16°C° 0 mm 3 m/S 750 mmHg 78%
17:00 +15°C° 0 mm 2 m/S 750 mmHg 81%
18:00 +14°C° 0 mm 2 m/S 750 mmHg 83%
19:00 +14°C° 0 mm 2 m/S 750 mmHg 86%
20:00 +13°C° 0 mm 2 m/S 751 mmHg 86%
21:00 +13°C° 0 mm 2 m/S 751 mmHg 87%
22:00 +13°C° 0 mm 2 m/S 751 mmHg 87%
23:00 +13°C° 0 mm 2 m/S 751 mmHg 88%
Mehr zeigen

Wir brauchen deine Erlaubnis

Meteoprog und unser Service Anbieter werden persönliche Daten aufbewahren, so wie Cookies, Geräte Bezeichnung oder ähnliche Technologien von deinem Gerät und Prozess, so wie Persönliche Daten Inhalte und Werbungen, genauso wie social Media und den Verkehr zu analysieren.

  • Aufbewahrung und/oder Zugang zu deiner Geräte Informationen.

    Cookies, Geräte Bezeichnung oder andere Informationen, können aufbewahrt oder Zugang zu deinem Gerät erhalten, für den Grund, der oben angegeben wird.

  • Personalisierte Werbung und Inhalte, Messungen, Einblick in das Publikum und Produkt Entwicklung.

    Werbungen und Inhalte können personalisiert werden, basierend auf ein Profil. Mehr Daten können besser personalisierte Werbungen und Inhalte hinzufügen. Werbung und Inhalte können gezeigt und gemessen werden. Einblicke über das Publikum, welche die Werbung gesehen haben und den Inhalt, können abgeleitet werden. So wie Daten können genutzt werden, um es zu verbessern oder die Benutzer Erfahrung zu verbessern das System und die Software.

Wenn du “Ich stimme zu” klickst, erlaubst du uns, die Cookies zu benutzen die Geräte Bezeichnung, den Web oder ähnliche Technologien zu benutzen. Deine Settings, können in deinem Gerät bei deinem Browser geändert werden.

Für den bestimmten Zweck, berechtigten Interessen beruhen darauf, mehr als auf den Inhalt. Du kannst mehr darüber in unseren Privaten und Cookie Politik lesen.